Location: Beccas
(43.4309°N, 0.1528°E)
Time: 23:32:49
(UTC+00:00)

Cosmos 1703 - Pass Details

Date: 15 October 2021
Orbit: 521 x 539 km, 82.5° (Epoch: 26 November)

Event Time Altitude Azimuth Distance (km) Brightness Sun altitude
Rises 18:12:36 0° 360° (N) 2,697 6.8 -11.0°
Reaches altitude 10° 18:14:55 10° 9° (N) 1,798 5.8 -11.4°
Maximum altitude 18:18:34 35° 76° (ENE) 875 3.8 -12.1°
Drops below altitude 10° 18:22:09 10° 144° (SE) 1,774 5.6 -12.8°
Sets 18:24:25 0° 153° (SSE) 2,655 6.5 -13.2°
